Walla Walla, WA
on Saturday, February 16, 2013

Saturday
Previous Day Next Day
Daily Summary
 ActualAverage (KPDT)Record (KPDT)
Temperature
Mean Temperature °F 38°F  
Max Temperature 55°F 47°F 66°F (1902)
Min Temperature 33°F 30°F -8°F (1936)
Degree Days
Heating Degree Days 21 27  
Month to date heating degree days 439  
Since 1 July heating degree days 3597  
Cooling Degree Days 0 0  
Month to date cooling degree days 0  
Year to date cooling degree days 0  
Moisture
Dew Point 35°F   
Average Humidity 72    
Maximum Humidity 89    
Minimum Humidity 55    
Precipitation
Precipitation 0.04 in 0.04 in 0.60 in (1922)
Month to date precipitation 0.62  
Year to date precipitation 2.05  
Snow
Snow 0.00 in 0.10 in 2.00 in (1952)
Month to date snowfall 2.0  
Year to date snowfall 5.7  
Since 1 July snowfall 13.2  
Snow Depth in   
Wind
Wind Speed 8 mph   
Max Wind Speed 18 mph   
Max Gust Speed 28 mph   
Visibility 10 miles   
Events Rain   

Key: T is trace of precipitation, MM is missing value
Source: NWS Daily Summary
Time(PST)TemperatureDew PointHumidity Pressure Visibility Wind DirectionWind SpeedGust SpeedPrecipitationEvents Conditions
12:53 AM 39.0°F 34.0°F 82% 30.26 in 10.0 miles South 8.1 mph - N/A   Clear
1:53 AM 39.0°F 34.0°F 82% 30.23 in 10.0 miles South 8.1 mph - N/A   Clear
2:53 AM 37.9°F 33.1°F 83% 30.21 in 10.0 miles South 5.8 mph - N/A   Clear
3:53 AM 37.9°F 33.1°F 83% 30.20 in 10.0 miles Variable 4.6 mph - N/A   Clear
4:53 AM 33.1°F 30.0°F 89% 30.20 in 10.0 miles Calm Calm - N/A   Clear
5:53 AM 34.0°F 30.9°F 89% 30.19 in 10.0 miles East 3.5 mph - N/A   Clear
6:53 AM 35.1°F 30.9°F 85% 30.17 in 10.0 miles East 5.8 mph - N/A   Clear
7:53 AM 37.0°F 33.1°F 86% 30.17 in 10.0 miles East 4.6 mph - N/A   Clear
8:53 AM 46.0°F 35.1°F 66% 30.16 in 10.0 miles SSE 3.5 mph - N/A   Clear
9:53 AM 48.9°F 36.0°F 61% 30.15 in 10.0 miles SW 5.8 mph - N/A   Clear
10:53 AM 53.1°F 37.0°F 55% 30.13 in 10.0 miles South 9.2 mph - N/A   Mostly Cloudy
11:53 AM 55.0°F 39.9°F 57% 30.12 in 10.0 miles WSW 12.7 mph - N/A   Overcast
12:53 PM 53.1°F 39.9°F 61% 30.09 in 10.0 miles SSW 13.8 mph - 0.00 in Rain Light Rain
1:53 PM 50.0°F 42.1°F 74% 30.09 in 4.0 miles SW 6.9 mph - 0.04 in Rain Light Rain
2:53 PM 51.1°F 41.0°F 68% 30.08 in 10.0 miles SSW 8.1 mph - 0.00 in   Overcast
3:53 PM 50.0°F 39.9°F 68% 30.06 in 10.0 miles South 17.3 mph 20.7 mph N/A   Overcast
4:53 PM 50.0°F 37.0°F 61% 30.06 in 10.0 miles South 16.1 mph 19.6 mph N/A   Overcast
5:53 PM 48.9°F 34.0°F 56% 30.06 in 10.0 miles SW 18.4 mph 27.6 mph N/A   Scattered Clouds
6:53 PM 46.0°F 34.0°F 63% 30.08 in 10.0 miles SW 16.1 mph - N/A   Mostly Cloudy
7:53 PM 43.0°F 34.0°F 71% 30.09 in 10.0 miles SSW 13.8 mph - N/A   Clear
8:53 PM 39.9°F 33.1°F 77% 30.12 in 10.0 miles South 11.5 mph - N/A   Clear
9:53 PM 39.9°F 33.1°F 77% 30.11 in 10.0 miles South 13.8 mph - N/A   Overcast
10:53 PM 41.0°F 32.0°F 70% 30.12 in 10.0 miles South 11.5 mph - N/A   Overcast
11:53 PM 41.0°F 32.0°F 70% 30.11 in 10.0 miles SSW 15.0 mph - N/A   Overcast
Moon Phase
Feb. 16 Feb. 17 Feb. 25 Mar. 04 Mar. 11
Sunrise:06:53 AM (PST) Moon Rise:09:45 AM (PST)2/16
Sunset:05:21 PM (PST) Moon Set:No Moon Set/

Copyright © 2014 The Weather Underground, Inc.